Location: Chuathbaluk
(61.5726°N, 159.2454°W)
Time: 15:15:34
(UTC+00:00)

NOAA 15 - Pass Details

Date: 19 January 2021
Orbit: 798 x 812 km, 98.7° (Epoch: 01 March)

Event Time Altitude Azimuth Distance (km) Brightness Sun altitude
Rises 06:33:06 0° 208° (SSW) 3,304 8.0 -30.2°
Reaches altitude 10° 06:35:57 10° 223° (SW) 2,381 7.3 -30.5°
Maximum altitude 06:39:59 22° 273° (W) 1,702 6.9 -31.0°
Drops below altitude 10° 06:44:03 10° 324° (NW) 2,400 7.6 -31.4°
Sets 06:46:57 0° 339° (NNW) 3,338 8.3 -31.8°
